Change the Weather History Date:

Wednesday, March 20, 2013

  Actual Average (KHSV) Record (KHSV)
Temperature  
Mean Temperature 46 °F 55 °F  
Max Temperature 56 °F 66 °F 86 °F (1921)
Min Temperature 36 °F 43 °F 14 °F (1934)
Degree Days  
Heating Degree Days 19 11  
Month to date heating degree days 265  
Since 1 July heating degree days 2717  
Cooling Degree Days 0 0  
Month to date cooling degree days 0  
Year to date cooling degree days 1  
Moisture  
Dew Point 24 °F    
Average Humidity 46    
Maximum Humidity 77    
Minimum Humidity 29    
Precipitation  
Precipitation 0.00 in 0.16 in 5.09 in (1980)
Month to date precipitation 3.33  
Year to date precipitation 13.06  
Snow  
Snow 0.00 in - - ()
Month to date snowfall  
Since 1 July snowfall  
Snow Depth -    
Sea Level Pressure  
Sea Level Pressure 30.10 in    
Wind  
Wind Speed 5 mph (NW)    
Max Wind Speed 14 mph    
Max Gust Speed 25 mph    
Visibility 10 miles    
Events      
T = Trace of Precipitation, MM = Missing Value Source: NWS Daily Summary

Daily Weather History Graph

Daily Weather History Graph

Search for Another Location

Airport or City:

Trip Planner

Search our weather history database for the weather conditions in past years. The results will help you decide how hot, cold, wet, or windy it might be!

Date:

Astronomy

Mar. 20, 2013 Rise Set
Actual Time 6:50 AM CDT 6:59 PM CDT
Civil Twilight 6:25 AM CDT 7:24 PM CDT
Nautical Twilight 5:56 AM CDT 7:53 PM CDT
Astronomical Twilight 5:27 AM CDT 8:23 PM CDT
Moon 12:47 PM CDT (3/20) 2:16 AM CDT (3/20)
Length of Visible Light 12h 58m
Length of Day
12h 08m
First Quarter, 59% of the Moon is Illuminated
Mar 20
First Quarter
Mar 27
Full
Apr 2
Last Quarter
Apr 10
New
Apr 18
First Quarter

Hourly Weather History & Observations

Time (CDT) Temp. Windchill Dew Point Humidity Pressure Visibility Wind Dir Wind Speed Gust Speed Precip Events Conditions
12:15 AM 44.1 °F 41.5 °F 23.5 °F 44% 30.15 in 10.0 mi North 4.6 mph - N/A   Scattered Clouds
12:35 AM 44.2 °F 41.8 °F 22.5 °F 42% 30.15 in 10.0 mi North 4.6 mph - N/A   Scattered Clouds
12:55 AM 44.1 °F 42.5 °F 21.9 °F 42% 30.15 in 10.0 mi North 3.5 mph - N/A   Scattered Clouds
1:15 AM 42.1 °F 39.2 °F 23.2 °F 47% 30.16 in 10.0 mi North 4.6 mph - N/A   Scattered Clouds
1:35 AM 41.9 °F 39.0 °F 23.0 °F 47% 30.16 in 10.0 mi North 4.6 mph - N/A   Scattered Clouds
1:55 AM 41.9 °F 38.2 °F 21.9 °F 45% 30.16 in 10.0 mi North 5.8 mph - N/A   Scattered Clouds
2:15 AM 42.1 °F 40.2 °F 21.0 °F 43% 30.16 in 10.0 mi North 3.5 mph - N/A   Scattered Clouds
2:35 AM 41.9 °F 40.0 °F 20.8 °F 43% 30.15 in 10.0 mi North 3.5 mph - N/A   Clear
2:55 AM 41.5 °F 39.6 °F 20.7 °F 43% 30.15 in 10.0 mi North 3.5 mph - N/A   Clear
3:15 AM 40.8 °F 38.8 °F 22.1 °F 47% 30.14 in 10.0 mi North 3.5 mph - N/A   Mostly Cloudy
3:35 AM 40.5 °F - 23.0 °F 50% 30.14 in 10.0 mi Calm Calm - N/A   Mostly Cloudy
3:55 AM 39.9 °F 37.8 °F 23.5 °F 52% 30.13 in 10.0 mi North 3.5 mph - N/A   Scattered Clouds
4:15 AM 39.6 °F 36.3 °F 23.7 °F 53% 30.13 in 10.0 mi NNW 4.6 mph - N/A   Clear
4:35 AM 39.4 °F 37.2 °F 23.5 °F 53% 30.12 in 10.0 mi NNW 3.5 mph - N/A   Clear
4:55 AM 38.7 °F - 24.6 °F 57% 30.13 in 10.0 mi Calm Calm - N/A   Clear
5:15 AM 37.2 °F - 26.1 °F 64% 30.14 in 10.0 mi Calm Calm - N/A   Clear
5:35 AM 37.2 °F - 26.1 °F 64% 30.15 in 10.0 mi Calm Calm - N/A   Clear
5:55 AM 37.4 °F - 28.2 °F 69% 30.15 in 10.0 mi Calm Calm - N/A   Scattered Clouds
6:15 AM 37.4 °F - 29.1 °F 72% 30.14 in 10.0 mi Calm Calm - N/A   Scattered Clouds
6:35 AM 36.7 °F - 28.9 °F 74% 30.15 in 10.0 mi Calm Calm - N/A   Mostly Cloudy
6:55 AM 36.7 °F 34.1 °F 30.0 °F 77% 30.15 in 10.0 mi NNW 3.5 mph - N/A   Mostly Cloudy
7:15 AM 36.9 °F - 28.8 °F 72% 30.16 in 10.0 mi Calm Calm - N/A   Overcast
7:35 AM 36.9 °F - 29.5 °F 75% 30.16 in 10.0 mi Calm Calm - N/A   Mostly Cloudy
7:55 AM 37.2 °F - 30.2 °F 76% 30.17 in 10.0 mi Calm Calm - N/A   Scattered Clouds
8:15 AM 38.1 °F - 30.9 °F 75% 30.17 in 10.0 mi Calm Calm - N/A   Clear
8:35 AM 39.2 °F - 29.3 °F 68% 30.18 in 10.0 mi Calm Calm - N/A   Clear
8:55 AM 40.6 °F - 25.5 °F 55% 30.18 in 10.0 mi Calm Calm - N/A   Clear
9:15 AM 41.5 °F - 23.9 °F 50% 30.18 in 10.0 mi Calm Calm - N/A   Clear
9:35 AM 42.8 °F 41.1 °F 23.5 °F 47% 30.18 in 10.0 mi North 3.5 mph - N/A   Clear
9:55 AM 44.4 °F - 22.6 °F 42% 30.18 in 10.0 mi Calm Calm - N/A   Clear
10:15 AM 45.5 °F 43.2 °F 20.8 °F 38% 30.18 in 10.0 mi NW 4.6 mph - N/A   Clear
10:35 AM 46.0 °F 44.8 °F 19.4 °F 35% 30.17 in 10.0 mi North 3.5 mph - N/A   Clear
10:55 AM 47.5 °F - 17.6 °F 30% 30.17 in 10.0 mi NNW 3.5 mph - N/A   Clear
11:15 AM 49.3 °F - 18.5 °F 30% 30.16 in 10.0 mi NNW 5.8 mph - N/A   Clear
11:35 AM 51.1 °F - 19.6 °F 29% 30.16 in 10.0 mi WNW 10.4 mph 16.1 mph N/A   Clear
11:55 AM 51.4 °F - 19.9 °F 29% 30.16 in 10.0 mi NNW 5.8 mph - N/A   Clear
12:15 PM 52.7 °F - 21.2 °F 29% 30.15 in 10.0 mi North 8.1 mph 18.4 mph N/A   Clear
12:35 PM 52.7 °F - 21.4 °F 29% 30.13 in 10.0 mi NNW 8.1 mph 17.3 mph N/A   Clear
12:55 PM 54.0 °F - 22.3 °F 29% 30.12 in 10.0 mi NW 6.9 mph - N/A   Clear
1:15 PM 54.9 °F - 23.4 °F 30% 30.11 in 10.0 mi West 9.2 mph 16.1 mph N/A   Clear
1:35 PM 55.2 °F - 23.4 °F 29% 30.10 in 10.0 mi WNW 11.5 mph 19.6 mph N/A   Clear
1:55 PM 55.4 °F - 24.4 °F 30% 30.09 in 10.0 mi NW 10.4 mph 16.1 mph N/A   Clear
2:15 PM 55.8 °F - 24.8 °F 30% 30.08 in 10.0 mi West 13.8 mph 23.0 mph N/A   Clear
2:35 PM 55.8 °F - 24.8 °F 30% 30.07 in 10.0 mi WNW 10.4 mph 25.3 mph N/A   Clear
2:55 PM 55.9 °F - 25.2 °F 31% 30.05 in 10.0 mi WNW 10.4 mph 18.4 mph N/A   Clear
3:15 PM 56.1 °F - 25.0 °F 30% 30.04 in 10.0 mi NW 12.7 mph 18.4 mph N/A   Clear
3:35 PM 56.5 °F - 25.5 °F 30% 30.04 in 10.0 mi WNW 8.1 mph 23.0 mph N/A   Clear
3:55 PM 55.8 °F - 25.0 °F 31% 30.03 in 10.0 mi WNW 12.7 mph 23.0 mph N/A   Clear
4:15 PM 55.4 °F - 25.3 °F 31% 30.02 in 10.0 mi West 10.4 mph 18.4 mph N/A   Clear
4:35 PM 54.9 °F - 24.4 °F 31% 30.02 in 10.0 mi WNW 9.2 mph 21.9 mph N/A   Clear
4:55 PM 55.4 °F - 25.0 °F 31% 30.02 in 10.0 mi NW 12.7 mph 24.2 mph N/A   Scattered Clouds
5:15 PM 53.6 °F - 25.3 °F 34% 30.02 in 10.0 mi WNW 9.2 mph 17.3 mph N/A   Scattered Clouds
5:35 PM 53.2 °F - 24.8 °F 33% 30.01 in 10.0 mi NW 11.5 mph 21.9 mph N/A   Scattered Clouds
5:55 PM 53.6 °F - 24.3 °F 32% 30.01 in 10.0 mi WNW 9.2 mph 19.6 mph N/A   Scattered Clouds
6:15 PM 51.8 °F - 23.9 °F 34% 30.01 in 10.0 mi WNW 9.2 mph 18.4 mph N/A   Scattered Clouds
6:35 PM 50.5 °F - 24.3 °F 36% 30.01 in 10.0 mi WNW 9.2 mph 17.3 mph N/A   Scattered Clouds
6:55 PM 49.5 °F - 24.8 °F 38% 30.01 in 10.0 mi NW 6.9 mph 19.6 mph N/A   Scattered Clouds
7:15 PM 48.0 °F - 25.5 °F 41% 30.01 in 10.0 mi NW 9.2 mph 17.3 mph N/A   Clear
7:35 PM 47.1 °F - 25.7 °F 43% 30.02 in 10.0 mi NW 8.1 mph - N/A   Clear
7:55 PM 46.2 °F 41.2 °F 25.5 °F 44% 30.02 in 10.0 mi NW 10.4 mph - N/A   Clear
8:15 PM 45.5 °F 40.8 °F 25.9 °F 46% 30.03 in 10.0 mi NW 9.2 mph 18.4 mph N/A   Clear
8:35 PM 44.8 °F 40.4 °F 26.4 °F 49% 30.04 in 10.0 mi NW 8.1 mph - N/A   Clear
8:55 PM 44.1 °F 40.1 °F 26.6 °F 50% 30.04 in 10.0 mi NW 6.9 mph 16.1 mph N/A   Clear
9:15 PM 43.2 °F 38.4 °F 26.4 °F 52% 30.04 in 10.0 mi NW 8.1 mph - N/A   Clear
9:35 PM 42.3 °F 40.5 °F 26.2 °F 53% 30.05 in 10.0 mi NW 3.5 mph - N/A   Clear
9:55 PM 41.4 °F - 26.2 °F 55% 30.05 in 10.0 mi Calm Calm - N/A   Clear
10:15 PM 40.5 °F - 25.9 °F 56% 30.05 in 10.0 mi Calm Calm - N/A   Scattered Clouds
10:35 PM 39.7 °F - 25.9 °F 58% 30.04 in 10.0 mi Calm Calm - N/A   Scattered Clouds
10:55 PM 39.2 °F - 25.7 °F 58% 30.03 in 10.0 mi Calm Calm - N/A   Clear
11:15 PM 38.5 °F 36.1 °F 25.7 °F 60% 30.03 in 10.0 mi West 3.5 mph - N/A   Clear
11:35 PM 38.3 °F 35.9 °F 25.3 °F 60% 30.03 in 10.0 mi West 3.5 mph - N/A   Clear
11:55 PM 38.5 °F 36.1 °F 25.0 °F 58% 30.02 in 10.0 mi WNW 3.5 mph - N/A   Clear